Location: Buisson
(44.2787°N, 4.9969°E)
Time: 07:22:04
(UTC+00:00)

Cosmos 1484 Rocket - Pass Details

Date: 18 April 2021
Orbit: 506 x 557 km, 97.4° (Epoch: 05 May)

Event Time Altitude Azimuth Distance (km) Brightness Sun altitude
Rises 04:11:31 0° 12° (NNE) 2,734 6.9 -7.5°
Reaches altitude 10° 04:13:39 10° 12° (NNE) 1,841 6.0 -7.2°
Maximum altitude 04:17:39 89° 278° (W) 562 2.9 -6.5°
Drops below altitude 10° 04:21:38 10° 194° (SSW) 1,837 5.2 -5.9°
Sets 04:23:46 0° 194° (SSW) 2,727 6.0 -5.5°
